owner,sensor,date,latitude,longitude,vertical_datum,mass_concentration_of_oxygen_in_sea_water,qcFlag 
DISL,ioos:station:DISL:PPTA:1,2013-09-01T00:00:00Z,30.2791,-87.5561,1.215,6.37,1111122 
DISL,ioos:station:DISL:PPTA:1,2013-09-01T00:30:00Z,30.2791,-87.5561,1.217,6.35,1111122 
DISL,ioos:station:DISL:PPTA:1,2013-09-01T01:00:00Z,30.2791,-87.5561,1.224,5.96,1111122 
DISL,ioos:station:DISL:PPTA:1,2013-09-01T01:30:00Z,30.2791,-87.5561,1.216,5.79,1111122 
DISL,ioos:station:DISL:PPTA:1,2013-09-01T02:00:00Z,30.2791,-87.5561,1.226,5.95,1111122 
DISL,ioos:station:DISL:PPTA:1,2013-09-01T02:30:00Z,30.2791,-87.5561,1.221,5.7,1111122 
DISL,ioos:station:DISL:PPTA:1,2013-09-01T03:00:00Z,30.2791,-87.5561,1.252,5.37,1111122 
DISL,ioos:station:DISL:PPTA:1,2013-09-01T03:30:00Z,30.2791,-87.5561,1.231,5.55,1111122 
DISL,ioos:station:DISL:PPTA:1,2013-09-01T04:00:00Z,30.2791,-87.5561,1.205,5.41,1111122 
DISL,ioos:station:DISL:PPTA:1,2013-09-01T04:30:00Z,30.2791,-87.5561,1.236,3.65,1111122 
DISL,ioos:station:DISL:PPTA:1,2013-09-01T05:00:00Z,30.2791,-87.5561,1.218,3.55,1111122 
DISL,ioos:station:DISL:PPTA:1,2013-09-01T05:30:00Z,30.2791,-87.5561,1.263,3.18,1111122 
DISL,ioos:station:DISL:PPTA:1,2013-09-01T06:00:00Z,30.2791,-87.5561,1.273,3.47,1111122 
DISL,ioos:station:DISL:PPTA:1,2013-09-01T06:30:00Z,30.2791,-87.5561,1.284,3.85,1111122 
DISL,ioos:station:DISL:PPTA:1,2013-09-01T07:00:00Z,30.2791,-87.5561,1.292,3.67,1111122 
DISL,ioos:station:DISL:PPTA:1,2013-09-01T07:30:00Z,30.2791,-87.5561,1.303,3.39,1111122 
DISL,ioos:station:DISL:PPTA:1,2013-09-01T08:00:00Z,30.2791,-87.5561,1.326,3.32,1111122 
DISL,ioos:station:DISL:PPTA:1,2013-09-01T08:30:00Z,30.2791,-87.5561,1.337,3.38,1111122 
DISL,ioos:station:DISL:PPTA:1,2013-09-01T09:00:00Z,30.2791,-87.5561,1.341,3.34,1111122 
DISL,ioos:station:DISL:PPTA:1,2013-09-01T09:30:00Z,30.2791,-87.5561,1.359,3.08,1111122 
DISL,ioos:station:DISL:PPTA:1,2013-09-01T10:00:00Z,30.2791,-87.5561,1.375,3.11,1111122 
DISL,ioos:station:DISL:PPTA:1,2013-09-01T10:30:00Z,30.2791,-87.5561,1.383,3.08,1111122 
DISL,ioos:station:DISL:PPTA:1,2013-09-01T11:00:00Z,30.2791,-87.5561,1.405,3.12,1111122 
DISL,ioos:station:DISL:PPTA:1,2013-09-01T11:30:00Z,30.2791,-87.5561,1.409,3.05,1111122 
DISL,ioos:station:DISL:PPTA:1,2013-09-01T12:00:00Z,30.2791,-87.5561,1.423,2.93,1111122 
DISL,ioos:station:DISL:PPTA:1,2013-09-01T12:30:00Z,30.2791,-87.5561,1.418,2.99,1111122 
DISL,ioos:station:DISL:PPTA:1,2013-09-01T13:00:00Z,30.2791,-87.5561,1.422,3.28,1111122 
DISL,ioos:station:DISL:PPTA:1,2013-09-01T13:30:00Z,30.2791,-87.5561,1.413,3.25,1111122 
DISL,ioos:station:DISL:PPTA:1,2013-09-01T14:00:00Z,30.2791,-87.5561,1.414,3.61,1111122 
DISL,ioos:station:DISL:PPTA:1,2013-09-01T14:30:00Z,30.2791,-87.5561,1.409,3.41,1111122 
DISL,ioos:station:DISL:PPTA:1,2013-09-01T15:00:00Z,30.2791,-87.5561,1.393,3.72,1111122 
DISL,ioos:station:DISL:PPTA:1,2013-09-01T15:30:00Z,30.2791,-87.5561,1.395,4.06,1111122 
DISL,ioos:station:DISL:PPTA:1,2013-09-01T16:00:00Z,30.2791,-87.5561,1.391,4.03,1111122 
DISL,ioos:station:DISL:PPTA:1,2013-09-01T16:30:00Z,30.2791,-87.5561,1.364,4.86,1111122 
DISL,ioos:station:DISL:PPTA:1,2013-09-01T17:00:00Z,30.2791,-87.5561,1.346,4.74,1111122 
DISL,ioos:station:DISL:PPTA:1,2013-09-01T17:30:00Z,30.2791,-87.5561,1.315,4.74,1111122 
DISL,ioos:station:DISL:PPTA:1,2013-09-01T18:00:00Z,30.2791,-87.5561,1.31,5.05,1111122 
DISL,ioos:station:DISL:PPTA:1,2013-09-01T18:30:00Z,30.2791,-87.5561,1.281,4.75,1111122 
DISL,ioos:station:DISL:PPTA:1,2013-09-01T19:00:00Z,30.2791,-87.5561,1.29,6.38,1111122 
DISL,ioos:station:DISL:PPTA:1,2013-09-01T19:30:00Z,30.2791,-87.5561,1.284,6.38,1111122 
DISL,ioos:station:DISL:PPTA:1,2013-09-01T20:00:00Z,30.2791,-87.5561,1.277,6.31,1111122 
DISL,ioos:station:DISL:PPTA:1,2013-09-01T20:30:00Z,30.2791,-87.5561,1.264,6.11,1111122 
DISL,ioos:station:DISL:PPTA:1,2013-09-01T21:00:00Z,30.2791,-87.5561,1.252,6.65,1111122 
DISL,ioos:station:DISL:PPTA:1,2013-09-01T21:30:00Z,30.2791,-87.5561,1.239,5.28,1111122 
DISL,ioos:station:DISL:PPTA:1,2013-09-01T22:00:00Z,30.2791,-87.5561,1.235,6.04,1111122 
DISL,ioos:station:DISL:PPTA:1,2013-09-01T22:30:00Z,30.2791,-87.5561,1.235,6.52,1111122 
DISL,ioos:station:DISL:PPTA:1,2013-09-01T23:00:00Z,30.2791,-87.5561,1.214,6.45,1111122 
DISL,ioos:station:DISL:PPTA:1,2013-09-01T23:30:00Z,30.2791,-87.5561,1.224,6.55,1111122 
DISL,ioos:station:DISL:PPTA:1,2013-09-02T00:00:00Z,30.2791,-87.5561,1.244,6.44,1111122 
DISL,ioos:station:DISL:PPTA:1,2013-09-02T00:30:00Z,30.2791,-87.5561,1.247,6.16,1111122 
DISL,ioos:station:DISL:PPTA:1,2013-09-02T01:00:00Z,30.2791,-87.5561,1.228,6.03,1111122 
DISL,ioos:station:DISL:PPTA:1,2013-09-02T01:30:00Z,30.2791,-87.5561,1.246,5.91,1111122 
DISL,ioos:station:DISL:PPTA:1,2013-09-02T02:00:00Z,30.2791,-87.5561,1.235,5.52,1111122 
DISL,ioos:station:DISL:PPTA:1,2013-09-02T02:30:00Z,30.2791,-87.5561,1.246,5.36,1111122 
DISL,ioos:station:DISL:PPTA:1,2013-09-02T03:00:00Z,30.2791,-87.5561,1.242,5.34,1111122 
DISL,ioos:station:DISL:PPTA:1,2013-09-02T03:30:00Z,30.2791,-87.5561,1.238,5.26,1111122 
DISL,ioos:station:DISL:PPTA:1,2013-09-02T04:00:00Z,30.2791,-87.5561,1.227,4.93,1111122 
DISL,ioos:station:DISL:PPTA:1,2013-09-02T04:30:00Z,30.2791,-87.5561,1.243,5.34,1111122 
DISL,ioos:station:DISL:PPTA:1,2013-09-02T05:00:00Z,30.2791,-87.5561,1.236,4.16,1111122 
DISL,ioos:station:DISL:PPTA:1,2013-09-02T05:30:00Z,30.2791,-87.5561,1.234,4.1,1111122 
DISL,ioos:station:DISL:PPTA:1,2013-09-02T06:00:00Z,30.2791,-87.5561,1.238,4.07,1111122 
DISL,ioos:station:DISL:PPTA:1,2013-09-02T06:30:00Z,30.2791,-87.5561,1.249,3.96,1111122 
DISL,ioos:station:DISL:PPTA:1,2013-09-02T07:00:00Z,30.2791,-87.5561,1.255,3.97,1111122 
DISL,ioos:station:DISL:PPTA:1,2013-09-02T07:30:00Z,30.2791,-87.5561,1.26,4.07,1111122 
DISL,ioos:station:DISL:PPTA:1,2013-09-02T08:00:00Z,30.2791,-87.5561,1.278,3.86,1111122 
DISL,ioos:station:DISL:PPTA:1,2013-09-02T08:30:00Z,30.2791,-87.5561,1.302,3.82,1111122 
DISL,ioos:station:DISL:PPTA:1,2013-09-02T09:00:00Z,30.2791,-87.5561,1.319,3.88,1111122 
DISL,ioos:station:DISL:PPTA:1,2013-09-02T09:30:00Z,30.2791,-87.5561,1.337,3.81,1111122 
DISL,ioos:station:DISL:PPTA:1,2013-09-02T10:00:00Z,30.2791,-87.5561,1.339,4.0,1111122 
DISL,ioos:station:DISL:PPTA:1,2013-09-02T10:30:00Z,30.2791,-87.5561,1.366,3.59,1111122 
DISL,ioos:station:DISL:PPTA:1,2013-09-02T11:00:00Z,30.2791,-87.5561,1.376,3.91,1111122 
DISL,ioos:station:DISL:PPTA:1,2013-09-02T11:30:00Z,30.2791,-87.5561,1.378,3.84,1111122 
DISL,ioos:station:DISL:PPTA:1,2013-09-02T12:00:00Z,30.2791,-87.5561,1.384,3.68,1111122 
DISL,ioos:station:DISL:PPTA:1,2013-09-02T12:30:00Z,30.2791,-87.5561,1.401,4.21,1111122 
DISL,ioos:station:DISL:PPTA:1,2013-09-02T13:00:00Z,30.2791,-87.5561,1.397,4.04,1111122 
DISL,ioos:station:DISL:PPTA:1,2013-09-02T13:30:00Z,30.2791,-87.5561,1.39,4.05,1111122 
DISL,ioos:station:DISL:PPTA:1,2013-09-02T14:00:00Z,30.2791,-87.5561,1.39,4.08,1111122 
DISL,ioos:station:DISL:PPTA:1,2013-09-02T14:30:00Z,30.2791,-87.5561,1.385,4.3,1111122 
DISL,ioos:station:DISL:PPTA:1,2013-09-02T15:00:00Z,30.2791,-87.5561,1.378,4.33,1111122 
DISL,ioos:station:DISL:PPTA:1,2013-09-02T15:30:00Z,30.2791,-87.5561,1.385,4.25,1111122 
DISL,ioos:station:DISL:PPTA:1,2013-09-02T16:00:00Z,30.2791,-87.5561,1.362,4.43,1111122 
DISL,ioos:station:DISL:PPTA:1,2013-09-02T16:30:00Z,30.2791,-87.5561,1.327,5.43,1111122 
DISL,ioos:station:DISL:PPTA:1,2013-09-02T17:00:00Z,30.2791,-87.5561,1.326,5.03,1111122 
DISL,ioos:station:DISL:PPTA:1,2013-09-02T17:30:00Z,30.2791,-87.5561,1.339,5.47,1111122 
DISL,ioos:station:DISL:PPTA:1,2013-09-02T18:00:00Z,30.2791,-87.5561,1.31,5.84,1111122 
DISL,ioos:station:DISL:PPTA:1,2013-09-02T18:30:00Z,30.2791,-87.5561,1.295,5.67,1111122 
DISL,ioos:station:DISL:PPTA:1,2013-09-02T19:00:00Z,30.2791,-87.5561,1.29,6.66,1111122 
DISL,ioos:station:DISL:PPTA:1,2013-09-02T19:30:00Z,30.2791,-87.5561,1.263,6.57,1111122 
DISL,ioos:station:DISL:PPTA:1,2013-09-02T20:00:00Z,30.2791,-87.5561,1.243,6.94,1111122 
DISL,ioos:station:DISL:PPTA:1,2013-09-02T20:30:00Z,30.2791,-87.5561,1.243,6.84,1111122 
DISL,ioos:station:DISL:PPTA:1,2013-09-02T21:00:00Z,30.2791,-87.5561,1.26,6.8,1111122 
DISL,ioos:station:DISL:PPTA:1,2013-09-02T21:30:00Z,30.2791,-87.5561,1.232,6.88,1111122 
DISL,ioos:station:DISL:PPTA:1,2013-09-02T22:00:00Z,30.2791,-87.5561,1.223,7.09,1111122 
DISL,ioos:station:DISL:PPTA:1,2013-09-02T22:30:00Z,30.2791,-87.5561,1.248,6.1,1111122 
DISL,ioos:station:DISL:PPTA:1,2013-09-02T23:00:00Z,30.2791,-87.5561,1.267,7.18,1111122 
DISL,ioos:station:DISL:PPTA:1,2013-09-02T23:30:00Z,30.2791,-87.5561,1.241,7.16,1111122 
DISL,ioos:station:DISL:PPTA:1,2013-09-03T00:00:00Z,30.2791,-87.5561,1.222,6.37,1111122 
DISL,ioos:station:DISL:PPTA:1,2013-09-03T00:30:00Z,30.2791,-87.5561,1.232,6.38,1111122 
DISL,ioos:station:DISL:PPTA:1,2013-09-03T01:00:00Z,30.2791,-87.5561,1.226,6.48,1111122 
DISL,ioos:station:DISL:PPTA:1,2013-09-03T01:30:00Z,30.2791,-87.5561,1.241,6.17,1111122 
DISL,ioos:station:DISL:PPTA:1,2013-09-03T02:00:00Z,30.2791,-87.5561,1.25,5.85,1111122 
DISL,ioos:station:DISL:PPTA:1,2013-09-03T02:30:00Z,30.2791,-87.5561,1.23,5.9,1111122 
DISL,ioos:station:DISL:PPTA:1,2013-09-03T03:00:00Z,30.2791,-87.5561,1.231,5.74,1111122 
DISL,ioos:station:DISL:PPTA:1,2013-09-03T03:30:00Z,30.2791,-87.5561,1.244,5.5,1111122 
DISL,ioos:station:DISL:PPTA:1,2013-09-03T04:00:00Z,30.2791,-87.5561,1.236,5.53,1111122 
DISL,ioos:station:DISL:PPTA:1,2013-09-03T04:30:00Z,30.2791,-87.5561,1.22,6.23,1111122 
DISL,ioos:station:DISL:PPTA:1,2013-09-03T05:00:00Z,30.2791,-87.5561,1.244,4.09,1111122 
DISL,ioos:station:DISL:PPTA:1,2013-09-03T05:30:00Z,30.2791,-87.5561,1.241,3.86,1111122 
DISL,ioos:station:DISL:PPTA:1,2013-09-03T06:00:00Z,30.2791,-87.5561,1.25,3.91,1111122 
DISL,ioos:station:DISL:PPTA:1,2013-09-03T06:30:00Z,30.2791,-87.5561,1.248,4.31,1111122 
DISL,ioos:station:DISL:PPTA:1,2013-09-03T07:00:00Z,30.2791,-87.5561,1.237,4.69,1111122 
DISL,ioos:station:DISL:PPTA:1,2013-09-03T07:30:00Z,30.2791,-87.5561,1.268,4.84,1111122 
DISL,ioos:station:DISL:PPTA:1,2013-09-03T08:00:00Z,30.2791,-87.5561,1.275,4.81,1111122 
DISL,ioos:station:DISL:PPTA:1,2013-09-03T08:30:00Z,30.2791,-87.5561,1.283,5.12,1111122 
DISL,ioos:station:DISL:PPTA:1,2013-09-03T09:00:00Z,30.2791,-87.5561,1.309,4.94,1111122 
DISL,ioos:station:DISL:PPTA:1,2013-09-03T09:30:00Z,30.2791,-87.5561,1.325,4.68,1111122 
DISL,ioos:station:DISL:PPTA:1,2013-09-03T10:00:00Z,30.2791,-87.5561,1.34,4.64,1111122 
DISL,ioos:station:DISL:PPTA:1,2013-09-03T10:30:00Z,30.2791,-87.5561,1.347,4.73,1111122 
DISL,ioos:station:DISL:PPTA:1,2013-09-03T11:00:00Z,30.2791,-87.5561,1.367,4.58,1111122 
DISL,ioos:station:DISL:PPTA:1,2013-09-03T11:30:00Z,30.2791,-87.5561,1.376,4.38,1111122 
DISL,ioos:station:DISL:PPTA:1,2013-09-03T12:00:00Z,30.2791,-87.5561,1.375,4.44,1111122 
DISL,ioos:station:DISL:PPTA:1,2013-09-03T12:30:00Z,30.2791,-87.5561,1.392,4.92,1111122 
DISL,ioos:station:DISL:PPTA:1,2013-09-03T13:00:00Z,30.2791,-87.5561,1.394,4.44,1111122 
DISL,ioos:station:DISL:PPTA:1,2013-09-03T13:30:00Z,30.2791,-87.5561,1.399,4.66,1111122 
DISL,ioos:station:DISL:PPTA:1,2013-09-03T14:00:00Z,30.2791,-87.5561,1.414,4.61,1111122 
DISL,ioos:station:DISL:PPTA:1,2013-09-03T14:30:00Z,30.2791,-87.5561,1.402,4.52,1111122 
DISL,ioos:station:DISL:PPTA:1,2013-09-03T15:00:00Z,30.2791,-87.5561,1.427,4.79,1111122 
DISL,ioos:station:DISL:PPTA:1,2013-09-03T15:30:00Z,30.2791,-87.5561,1.4,4.7,1111122 
DISL,ioos:station:DISL:PPTA:1,2013-09-03T16:00:00Z,30.2791,-87.5561,1.392,4.76,1111122 
DISL,ioos:station:DISL:PPTA:1,2013-09-03T16:30:00Z,30.2791,-87.5561,1.369,5.21,1111122 
DISL,ioos:station:DISL:PPTA:1,2013-09-03T17:00:00Z,30.2791,-87.5561,1.363,5.51,1111122 
DISL,ioos:station:DISL:PPTA:1,2013-09-03T17:30:00Z,30.2791,-87.5561,1.339,5.91,1111122 
DISL,ioos:station:DISL:PPTA:1,2013-09-03T18:00:00Z,30.2791,-87.5561,1.334,6.32,1111122 
DISL,ioos:station:DISL:PPTA:1,2013-09-03T18:30:00Z,30.2791,-87.5561,1.32,6.48,1111122 
DISL,ioos:station:DISL:PPTA:1,2013-09-03T19:00:00Z,30.2791,-87.5561,1.295,6.2,1111122 
DISL,ioos:station:DISL:PPTA:1,2013-09-03T19:30:00Z,30.2791,-87.5561,1.292,6.58,1111122 
DISL,ioos:station:DISL:PPTA:1,2013-09-03T20:00:00Z,30.2791,-87.5561,1.292,6.97,1111122 
DISL,ioos:station:DISL:PPTA:1,2013-09-03T20:30:00Z,30.2791,-87.5561,1.289,7.29,1111122 
DISL,ioos:station:DISL:PPTA:1,2013-09-03T21:00:00Z,30.2791,-87.5561,1.281,7.05,1111122 
DISL,ioos:station:DISL:PPTA:1,2013-09-03T21:30:00Z,30.2791,-87.5561,1.27,7.13,1111122 
DISL,ioos:station:DISL:PPTA:1,2013-09-03T22:00:00Z,30.2791,-87.5561,1.273,7.08,1111122 
DISL,ioos:station:DISL:PPTA:1,2013-09-03T22:30:00Z,30.2791,-87.5561,1.276,7.35,1111122 
DISL,ioos:station:DISL:PPTA:1,2013-09-03T23:00:00Z,30.2791,-87.5561,1.258,6.76,1111122 
DISL,ioos:station:DISL:PPTA:1,2013-09-03T23:30:00Z,30.2791,-87.5561,1.238,6.33,1111122 
DISL,ioos:station:DISL:PPTA:1,2013-09-04T00:00:00Z,30.2791,-87.5561,1.248,7.2,1111122 
DISL,ioos:station:DISL:PPTA:1,2013-09-04T00:30:00Z,30.2791,-87.5561,1.259,6.65,1111122 
DISL,ioos:station:DISL:PPTA:1,2013-09-04T01:00:00Z,30.2791,-87.5561,1.231,6.51,1111122 
DISL,ioos:station:DISL:PPTA:1,2013-09-04T01:30:00Z,30.2791,-87.5561,1.215,6.57,1111122 
DISL,ioos:station:DISL:PPTA:1,2013-09-04T02:00:00Z,30.2791,-87.5561,1.243,6.0,1111122 
DISL,ioos:station:DISL:PPTA:1,2013-09-04T02:30:00Z,30.2791,-87.5561,1.235,6.29,1111122 
DISL,ioos:station:DISL:PPTA:1,2013-09-04T03:00:00Z,30.2791,-87.5561,1.245,6.31,1111122 
DISL,ioos:station:DISL:PPTA:1,2013-09-04T03:30:00Z,30.2791,-87.5561,1.265,5.69,1111122 
DISL,ioos:station:DISL:PPTA:1,2013-09-04T04:00:00Z,30.2791,-87.5561,1.226,5.87,1111122 
DISL,ioos:station:DISL:PPTA:1,2013-09-04T04:30:00Z,30.2791,-87.5561,1.22,6.08,1111122 
DISL,ioos:station:DISL:PPTA:1,2013-09-04T05:00:00Z,30.2791,-87.5561,1.241,6.2,1111122 
DISL,ioos:station:DISL:PPTA:1,2013-09-04T05:30:00Z,30.2791,-87.5561,1.213,5.26,1111122 
DISL,ioos:station:DISL:PPTA:1,2013-09-04T06:00:00Z,30.2791,-87.5561,1.221,5.72,1111122 
DISL,ioos:station:DISL:PPTA:1,2013-09-04T06:30:00Z,30.2791,-87.5561,1.234,6.0,1111122 
DISL,ioos:station:DISL:PPTA:1,2013-09-04T07:00:00Z,30.2791,-87.5561,1.232,5.27,1111122 
DISL,ioos:station:DISL:PPTA:1,2013-09-04T07:30:00Z,30.2791,-87.5561,1.244,4.79,1111122 
DISL,ioos:station:DISL:PPTA:1,2013-09-04T08:00:00Z,30.2791,-87.5561,1.24,4.87,1111122 
DISL,ioos:station:DISL:PPTA:1,2013-09-04T08:30:00Z,30.2791,-87.5561,1.239,4.8,1111122 
DISL,ioos:station:DISL:PPTA:1,2013-09-04T09:00:00Z,30.2791,-87.5561,1.254,4.73,1111122 
DISL,ioos:station:DISL:PPTA:1,2013-09-04T09:30:00Z,30.2791,-87.5561,1.281,4.77,1111122 
DISL,ioos:station:DISL:PPTA:1,2013-09-04T10:00:00Z,30.2791,-87.5561,1.28,3.94,1111122 
DISL,ioos:station:DISL:PPTA:1,2013-09-04T10:30:00Z,30.2791,-87.5561,1.3,3.87,1111122 
DISL,ioos:station:DISL:PPTA:1,2013-09-04T11:00:00Z,30.2791,-87.5561,1.303,4.4,1111122 
DISL,ioos:station:DISL:PPTA:1,2013-09-04T11:30:00Z,30.2791,-87.5561,1.322,4.9,1111122 
DISL,ioos:station:DISL:PPTA:1,2013-09-04T12:00:00Z,30.2791,-87.5561,1.344,4.72,1111122 
DISL,ioos:station:DISL:PPTA:1,2013-09-04T12:30:00Z,30.2791,-87.5561,1.349,4.71,1111122 
DISL,ioos:station:DISL:PPTA:1,2013-09-04T13:00:00Z,30.2791,-87.5561,1.377,4.49,1111122 
DISL,ioos:station:DISL:PPTA:1,2013-09-04T13:30:00Z,30.2791,-87.5561,1.387,4.49,1111122 
DISL,ioos:station:DISL:PPTA:1,2013-09-04T14:00:00Z,30.2791,-87.5561,1.377,5.15,1111122 
DISL,ioos:station:DISL:PPTA:1,2013-09-04T14:30:00Z,30.2791,-87.5561,1.371,5.14,1111122 
DISL,ioos:station:DISL:PPTA:1,2013-09-04T15:00:00Z,30.2791,-87.5561,1.378,5.27,1111122 
DISL,ioos:station:DISL:PPTA:1,2013-09-04T15:30:00Z,30.2791,-87.5561,1.38,5.72,1111122 
DISL,ioos:station:DISL:PPTA:1,2013-09-04T16:00:00Z,30.2791,-87.5561,1.374,5.31,1111122 
DISL,ioos:station:DISL:PPTA:1,2013-09-04T16:30:00Z,30.2791,-87.5561,1.382,5.29,1111122 
DISL,ioos:station:DISL:PPTA:1,2013-09-04T17:00:00Z,30.2791,-87.5561,1.378,5.62,1111122 
DISL,ioos:station:DISL:PPTA:1,2013-09-04T17:30:00Z,30.2791,-87.5561,1.36,5.99,1111122 
DISL,ioos:station:DISL:PPTA:1,2013-09-04T18:00:00Z,30.2791,-87.5561,1.344,6.42,1111122 
DISL,ioos:station:DISL:PPTA:1,2013-09-04T18:30:00Z,30.2791,-87.5561,1.326,6.57,1111122 
DISL,ioos:station:DISL:PPTA:1,2013-09-04T19:00:00Z,30.2791,-87.5561,1.325,6.8,1111122 
DISL,ioos:station:DISL:PPTA:1,2013-09-04T19:30:00Z,30.2791,-87.5561,1.312,5.88,1111122 
DISL,ioos:station:DISL:PPTA:1,2013-09-04T20:00:00Z,30.2791,-87.5561,1.295,6.65,1111122 
DISL,ioos:station:DISL:PPTA:1,2013-09-04T20:30:00Z,30.2791,-87.5561,1.293,7.23,1111122 
DISL,ioos:station:DISL:PPTA:1,2013-09-04T21:00:00Z,30.2791,-87.5561,1.281,7.23,1111122 
DISL,ioos:station:DISL:PPTA:1,2013-09-04T21:30:00Z,30.2791,-87.5561,1.277,7.2,1111122 
DISL,ioos:station:DISL:PPTA:1,2013-09-04T22:00:00Z,30.2791,-87.5561,1.275,7.12,1111122 
DISL,ioos:station:DISL:PPTA:1,2013-09-04T22:30:00Z,30.2791,-87.5561,1.271,6.9,1111122 
DISL,ioos:station:DISL:PPTA:1,2013-09-04T23:00:00Z,30.2791,-87.5561,1.264,6.43,1111122 
DISL,ioos:station:DISL:PPTA:1,2013-09-04T23:30:00Z,30.2791,-87.5561,1.267,7.04,1111122 
DISL,ioos:station:DISL:PPTA:1,2013-09-05T00:00:00Z,30.2791,-87.5561,1.259,6.54,1111122 
DISL,ioos:station:DISL:PPTA:1,2013-09-05T00:30:00Z,30.2791,-87.5561,1.263,6.58,1111122 
DISL,ioos:station:DISL:PPTA:1,2013-09-05T01:00:00Z,30.2791,-87.5561,1.242,6.71,1111122 
DISL,ioos:station:DISL:PPTA:1,2013-09-05T01:30:00Z,30.2791,-87.5561,1.248,6.88,1111122 
DISL,ioos:station:DISL:PPTA:1,2013-09-05T02:00:00Z,30.2791,-87.5561,1.241,6.69,1111122 
DISL,ioos:station:DISL:PPTA:1,2013-09-05T02:30:00Z,30.2791,-87.5561,1.236,6.72,1111122 
DISL,ioos:station:DISL:PPTA:1,2013-09-05T03:00:00Z,30.2791,-87.5561,1.243,6.46,1111122 
DISL,ioos:station:DISL:PPTA:1,2013-09-05T03:30:00Z,30.2791,-87.5561,1.235,6.71,1111122 
DISL,ioos:station:DISL:PPTA:1,2013-09-05T04:00:00Z,30.2791,-87.5561,1.249,6.41,1111122 
DISL,ioos:station:DISL:PPTA:1,2013-09-05T04:30:00Z,30.2791,-87.5561,1.228,6.53,1111122 
DISL,ioos:station:DISL:PPTA:1,2013-09-05T05:00:00Z,30.2791,-87.5561,1.231,6.04,1111122 
DISL,ioos:station:DISL:PPTA:1,2013-09-05T05:30:00Z,30.2791,-87.5561,1.232,5.95,1111122 
DISL,ioos:station:DISL:PPTA:1,2013-09-05T06:00:00Z,30.2791,-87.5561,1.232,6.07,1111122 
DISL,ioos:station:DISL:PPTA:1,2013-09-05T06:30:00Z,30.2791,-87.5561,1.219,5.83,1111122 
DISL,ioos:station:DISL:PPTA:1,2013-09-05T07:00:00Z,30.2791,-87.5561,1.222,6.09,1111122 
DISL,ioos:station:DISL:PPTA:1,2013-09-05T07:30:00Z,30.2791,-87.5561,1.23,5.69,1111122 
DISL,ioos:station:DISL:PPTA:1,2013-09-05T08:00:00Z,30.2791,-87.5561,1.228,5.44,1111122 
DISL,ioos:station:DISL:PPTA:1,2013-09-05T08:30:00Z,30.2791,-87.5561,1.222,6.08,1111122 
DISL,ioos:station:DISL:PPTA:1,2013-09-05T09:00:00Z,30.2791,-87.5561,1.228,5.56,1111122 
DISL,ioos:station:DISL:PPTA:1,2013-09-05T09:30:00Z,30.2791,-87.5561,1.226,5.91,1111122 
DISL,ioos:station:DISL:PPTA:1,2013-09-05T10:00:00Z,30.2791,-87.5561,1.251,6.09,1111122 
DISL,ioos:station:DISL:PPTA:1,2013-09-05T10:30:00Z,30.2791,-87.5561,1.26,5.99,1111122 
DISL,ioos:station:DISL:PPTA:1,2013-09-05T11:00:00Z,30.2791,-87.5561,1.257,4.55,1111122 
DISL,ioos:station:DISL:PPTA:1,2013-09-05T11:30:00Z,30.2791,-87.5561,1.274,4.94,1111122 
DISL,ioos:station:DISL:PPTA:1,2013-09-05T12:00:00Z,30.2791,-87.5561,1.277,4.97,1111122 
DISL,ioos:station:DISL:PPTA:1,2013-09-05T12:30:00Z,30.2791,-87.5561,1.301,4.95,1111122 
DISL,ioos:station:DISL:PPTA:1,2013-09-05T13:00:00Z,30.2791,-87.5561,1.314,4.83,1111122 
DISL,ioos:station:DISL:PPTA:1,2013-09-05T13:30:00Z,30.2791,-87.5561,1.318,5.27,1111122 
DISL,ioos:station:DISL:PPTA:1,2013-09-05T14:00:00Z,30.2791,-87.5561,1.33,5.64,1111122 
DISL,ioos:station:DISL:PPTA:1,2013-09-05T14:30:00Z,30.2791,-87.5561,1.332,5.51,1111122 
DISL,ioos:station:DISL:PPTA:1,2013-09-05T15:00:00Z,30.2791,-87.5561,1.327,5.46,1111122 
DISL,ioos:station:DISL:PPTA:1,2013-09-05T15:30:00Z,30.2791,-87.5561,1.34,5.67,1111122 
DISL,ioos:station:DISL:PPTA:1,2013-09-05T16:00:00Z,30.2791,-87.5561,1.361,5.52,1111122 
DISL,ioos:station:DISL:PPTA:1,2013-09-05T16:30:00Z,30.2791,-87.5561,1.35,5.8,1111122 
DISL,ioos:station:DISL:PPTA:1,2013-09-05T17:00:00Z,30.2791,-87.5561,1.358,6.04,1111122 
DISL,ioos:station:DISL:PPTA:1,2013-09-05T17:30:00Z,30.2791,-87.5561,1.356,6.08,1111122 
DISL,ioos:station:DISL:PPTA:1,2013-09-05T18:00:00Z,30.2791,-87.5561,1.336,6.24,1111122 
DISL,ioos:station:DISL:PPTA:1,2013-09-05T18:30:00Z,30.2791,-87.5561,1.33,6.28,1111122 
DISL,ioos:station:DISL:PPTA:1,2013-09-05T19:00:00Z,30.2791,-87.5561,1.309,6.55,1111122 
DISL,ioos:station:DISL:PPTA:1,2013-09-05T19:30:00Z,30.2791,-87.5561,1.306,6.4,1111122 
DISL,ioos:station:DISL:PPTA:1,2013-09-05T20:00:00Z,30.2791,-87.5561,1.307,6.68,1111122 
DISL,ioos:station:DISL:PPTA:1,2013-09-05T20:30:00Z,30.2791,-87.5561,1.301,7.22,1111122 
DISL,ioos:station:DISL:PPTA:1,2013-09-05T21:00:00Z,30.2791,-87.5561,1.305,7.33,1111122 
DISL,ioos:station:DISL:PPTA:1,2013-09-05T21:30:00Z,30.2791,-87.5561,1.307,7.32,1111122 
DISL,ioos:station:DISL:PPTA:1,2013-09-05T22:00:00Z,30.2791,-87.5561,1.29,7.27,1111122 
DISL,ioos:station:DISL:PPTA:1,2013-09-05T22:30:00Z,30.2791,-87.5561,1.301,6.75,1111122 
DISL,ioos:station:DISL:PPTA:1,2013-09-05T23:00:00Z,30.2791,-87.5561,1.314,6.9,1111122 
DISL,ioos:station:DISL:PPTA:1,2013-09-05T23:30:00Z,30.2791,-87.5561,1.29,6.5,1111122 
DISL,ioos:station:DISL:PPTA:1,2013-09-06T00:00:00Z,30.2791,-87.5561,1.298,6.68,1111122 
DISL,ioos:station:DISL:PPTA:1,2013-09-06T00:30:00Z,30.2791,-87.5561,1.295,6.72,1111122 
DISL,ioos:station:DISL:PPTA:1,2013-09-06T01:00:00Z,30.2791,-87.5561,1.303,6.45,1111122 
DISL,ioos:station:DISL:PPTA:1,2013-09-06T01:30:00Z,30.2791,-87.5561,1.312,6.6,1111122 
DISL,ioos:station:DISL:PPTA:1,2013-09-06T02:00:00Z,30.2791,-87.5561,1.311,6.45,1111122 
DISL,ioos:station:DISL:PPTA:1,2013-09-06T02:30:00Z,30.2791,-87.5561,1.307,6.74,1111122 
DISL,ioos:station:DISL:PPTA:1,2013-09-06T03:00:00Z,30.2791,-87.5561,1.288,6.33,1111122 
DISL,ioos:station:DISL:PPTA:1,2013-09-06T03:30:00Z,30.2791,-87.5561,1.284,6.37,1111122 
DISL,ioos:station:DISL:PPTA:1,2013-09-06T04:00:00Z,30.2791,-87.5561,1.271,6.34,1111122 
DISL,ioos:station:DISL:PPTA:1,2013-09-06T04:30:00Z,30.2791,-87.5561,1.272,6.32,1111122 
DISL,ioos:station:DISL:PPTA:1,2013-09-06T05:00:00Z,30.2791,-87.5561,1.285,6.75,1111122 
DISL,ioos:station:DISL:PPTA:1,2013-09-06T05:30:00Z,30.2791,-87.5561,1.278,6.39,1111122 
DISL,ioos:station:DISL:PPTA:1,2013-09-06T06:00:00Z,30.2791,-87.5561,1.273,6.18,1111122 
DISL,ioos:station:DISL:PPTA:1,2013-09-06T06:30:00Z,30.2791,-87.5561,1.29,6.42,1111122 
DISL,ioos:station:DISL:PPTA:1,2013-09-06T07:00:00Z,30.2791,-87.5561,1.243,6.38,1111122 
DISL,ioos:station:DISL:PPTA:1,2013-09-06T07:30:00Z,30.2791,-87.5561,1.26,6.11,1111122 
DISL,ioos:station:DISL:PPTA:1,2013-09-06T08:00:00Z,30.2791,-87.5561,1.277,6.77,1111122 
DISL,ioos:station:DISL:PPTA:1,2013-09-06T08:30:00Z,30.2791,-87.5561,1.246,6.74,1111122 
DISL,ioos:station:DISL:PPTA:1,2013-09-06T09:00:00Z,30.2791,-87.5561,1.258,6.72,1111122 
DISL,ioos:station:DISL:PPTA:1,2013-09-06T09:30:00Z,30.2791,-87.5561,1.254,4.97,1111122 
DISL,ioos:station:DISL:PPTA:1,2013-09-06T10:00:00Z,30.2791,-87.5561,1.242,4.8,1111122 
DISL,ioos:station:DISL:PPTA:1,2013-09-06T10:30:00Z,30.2791,-87.5561,1.249,6.55,1111122 
DISL,ioos:station:DISL:PPTA:1,2013-09-06T11:00:00Z,30.2791,-87.5561,1.258,5.33,1111122 
DISL,ioos:station:DISL:PPTA:1,2013-09-06T11:30:00Z,30.2791,-87.5561,1.271,6.35,1111122 
DISL,ioos:station:DISL:PPTA:1,2013-09-06T12:00:00Z,30.2791,-87.5561,1.268,6.07,1111122 
DISL,ioos:station:DISL:PPTA:1,2013-09-06T12:30:00Z,30.2791,-87.5561,1.277,6.11,1111122 
DISL,ioos:station:DISL:PPTA:1,2013-09-06T13:00:00Z,30.2791,-87.5561,1.281,5.91,1111122 
DISL,ioos:station:DISL:PPTA:1,2013-09-06T13:30:00Z,30.2791,-87.5561,1.284,5.13,1111122 
DISL,ioos:station:DISL:PPTA:1,2013-09-06T14:00:00Z,30.2791,-87.5561,1.285,4.91,1111122 
DISL,ioos:station:DISL:PPTA:1,2013-09-06T14:30:00Z,30.2791,-87.5561,1.287,4.98,1111122 
DISL,ioos:station:DISL:PPTA:1,2013-09-06T15:00:00Z,30.2791,-87.5561,1.294,5.28,1111122 
DISL,ioos:station:DISL:PPTA:1,2013-09-06T15:30:00Z,30.2791,-87.5561,1.292,5.29,1111122 